{"data":{"norad_id":61224,"epoch":"2026-05-25T04:19:18.905952Z","epoch_age_seconds":59777,"freshness":"FRESH","line1":"1 61224U 24172E   26145.18007993  .00001700  00000+0  27669-3 0  9996","line2":"2 61224  98.0409 235.4432 0003120 125.2187 234.9312 14.72322476 89966","mean_motion":14.72322476,"eccentricity":0.000312,"inclination_deg":98.0409,"raan_deg":235.4432,"arg_perigee_deg":125.2187,"mean_anomaly_deg":234.9312,"bstar":0.00027669,"rev_number":8996,"period_min":97.804660559974,"perigee_km":651.46967334166,"apogee_km":655.85751691302,"semimajor_km":7031.8005951273,"source":"CELESTRAK","updated_at":"2026-05-25T13:38:02.343099Z"}}